Location: Newark
(54.0919°N, 2.6681°W)
Time: 10:38:45
(UTC+00:00)

STRAND 1 - Visible Passes

Search period start: 15 December 2019 00:00
Search period end: 25 December 2019 00:00
Orbit: 767 x 782 km, 98.5° (Epoch: 14 December)

Date Brightness Start Highest point End Pass type
(mag) Time Alt. Az. Time Alt. Az. Time Alt. Az.
15 Dec ? 04:34:29 10° E 04:37:19 15° NE 04:40:09 10° NNE visible
15 Dec ? 06:10:34 10° SSE 06:15:38 64° ENE 06:20:41 10° N visible
16 Dec ? 05:37:06 10° SE 05:41:46 37° ENE 05:46:27 10° N visible
16 Dec ? 07:16:04 10° S 07:20:55 43° W 07:25:49 10° NNW visible
17 Dec ? 05:04:09 10° ESE 05:08:04 23° NE 05:12:01 10° N visible
17 Dec ? 06:41:39 10° SSE 06:46:47 78° WSW 06:51:55 10° NNW visible
18 Dec ? 04:31:50 10° E 04:34:32 15° NE 04:37:13 10° NNE visible
18 Dec ? 06:07:46 10° SSE 06:12:47 61° ENE 06:17:50 10° N visible
19 Dec ? 05:34:20 10° SE 05:38:57 35° ENE 05:43:35 10° N visible
19 Dec ? 07:13:10 10° S 07:18:05 45° W 07:22:59 10° NNW visible
20 Dec ? 05:01:26 10° ESE 05:05:16 22° NE 05:09:07 10° N visible
20 Dec ? 06:38:49 10° SSE 06:43:56 81° WSW 06:49:05 10° NNW visible
21 Dec ? 04:29:12 10° ENE 04:31:44 14° NE 04:34:17 10° NNE visible
21 Dec ? 06:04:57 10° SE 06:09:58 58° ENE 06:14:59 10° N visible
22 Dec ? 05:31:34 10° SE 05:36:08 34° ENE 05:40:43 10° N visible
22 Dec ? 07:10:18 10° S 07:15:13 47° W 07:20:10 10° NNW visible
23 Dec ? 04:58:42 10° ESE 05:02:28 21° NE 05:06:14 10° N visible
23 Dec ? 06:35:59 10° SSE 06:41:05 85° WSW 06:46:15 10° NNW visible
24 Dec ? 04:26:33 10° ENE 04:28:56 13° NE 04:31:20 10° NNE visible
24 Dec ? 06:02:10 10° SE 06:07:08 55° ENE 06:12:07 10° N visible
24 Dec ? 07:42:17 10° SSW 07:46:38 28° W 07:51:01 10° NW visible
